User: anonymous   Login
Location: Unspecified
(0.0000°N, 0.0000°E)
Time: 19:30:26
(UTC+00:00)
Language:

Optus B3 - Orbit

View from above orbital plane
View from above orbital plane
View from above satellite
View from above satellite

Ground track
Ground track

The orbit data is extracted from the following two-line orbital elements,

1 23227U 94055A   19053.79028833 -.00000181 +00000-0 +00000-0 0  9998
2 23227 008.3195 046.4866 0010473 300.8863 096.9262 00.98697850089554
Epoch (UTC): 22 February 2019 18:58:00
Eccentricity: 0.0010473
inclination: 8.3195°
perigee height: 36188 km
apogee height: 36278 km
right ascension of ascending node: 46.4866°
argument of perigee: 300.8863°
revolutions per day: 0.98697850
mean anomaly at epoch: 96.9262°
orbit number at epoch: 8955

The dashed part of the orbit path shows where the satellite is in the earth's shadow,  

DLR